TimeCDT,TemperatureF,Dew PointF,Humidity,Sea Level PressureIn,VisibilityMPH,Wind Direction,Wind SpeedMPH,Gust SpeedMPH,PrecipitationIn,Events,Conditions,WindDirDegrees,DateUTC
12:15 AM,61.3,46.9,59,29.80,10.0,West,3.5,-,N/A,,Clear,280,2013-04-07 05:15:00
12:35 AM,60.4,45.5,58,29.80,10.0,West,3.5,-,N/A,,Clear,280,2013-04-07 05:35:00
12:55 AM,59.9,45.0,58,29.80,10.0,WSW,3.5,-,N/A,,Clear,250,2013-04-07 05:55:00
1:15 AM,60.3,44.8,57,29.81,10.0,West,3.5,-,N/A,,Clear,260,2013-04-07 06:15:00
1:35 AM,58.5,45.0,61,29.81,10.0,SW,4.6,-,N/A,,Clear,220,2013-04-07 06:35:00
1:55 AM,57.9,45.0,62,29.82,10.0,WSW,4.6,-,N/A,,Clear,240,2013-04-07 06:55:00
2:15 AM,58.3,44.1,59,29.82,10.0,WSW,4.6,-,N/A,,Clear,240,2013-04-07 07:15:00
2:35 AM,56.5,44.4,64,29.82,10.0,WSW,3.5,-,N/A,,Clear,250,2013-04-07 07:35:00
2:55 AM,53.6,44.1,70,29.83,10.0,West,4.6,-,N/A,,Clear,260,2013-04-07 07:55:00
3:15 AM,51.8,44.1,75,29.83,10.0,WNW,3.5,-,N/A,,Clear,290,2013-04-07 08:15:00
3:35 AM,49.8,43.0,77,29.84,10.0,WNW,4.6,-,N/A,,Clear,290,2013-04-07 08:35:00
3:55 AM,51.4,43.5,74,29.84,10.0,WNW,3.5,-,N/A,,Clear,300,2013-04-07 08:55:00
4:15 AM,50.9,42.3,72,29.85,10.0,Calm,Calm,-,N/A,,Clear,0,2013-04-07 09:15:00
4:35 AM,48.0,42.4,81,29.86,10.0,NNW,5.8,-,N/A,,Clear,340,2013-04-07 09:35:00
4:55 AM,51.1,41.9,71,29.87,10.0,NNW,3.5,-,N/A,,Clear,340,2013-04-07 09:55:00
5:15 AM,50.2,41.4,72,29.88,10.0,Calm,Calm,-,N/A,,Clear,0,2013-04-07 10:15:00
5:35 AM,48.6,41.0,75,29.88,10.0,Calm,Calm,-,N/A,,Clear,0,2013-04-07 10:35:00
5:55 AM,48.0,41.5,78,29.88,10.0,North,5.8,-,N/A,,Clear,10,2013-04-07 10:55:00
6:15 AM,50.9,42.3,72,29.89,10.0,Calm,Calm,-,N/A,,Clear,0,2013-04-07 11:15:00
6:35 AM,50.9,42.4,73,29.90,10.0,Calm,Calm,-,N/A,,Clear,0,2013-04-07 11:35:00
6:55 AM,49.5,42.1,76,29.91,10.0,Calm,Calm,-,N/A,,Clear,0,2013-04-07 11:55:00
7:15 AM,45.7,40.3,81,29.91,10.0,Calm,Calm,-,N/A,,Clear,0,2013-04-07 12:15:00
7:35 AM,46.2,41.4,83,29.91,10.0,Calm,Calm,-,N/A,,Clear,0,2013-04-07 12:35:00
7:55 AM,50.2,43.9,79,29.92,10.0,Calm,Calm,-,N/A,,Clear,0,2013-04-07 12:55:00
8:15 AM,54.1,44.2,69,29.92,10.0,NNE,3.5,-,N/A,,Clear,30,2013-04-07 13:15:00
8:35 AM,55.4,44.8,67,29.92,10.0,NE,3.5,-,N/A,,Clear,50,2013-04-07 13:35:00
8:55 AM,56.8,44.8,64,29.92,10.0,NE,3.5,-,N/A,,Clear,40,2013-04-07 13:55:00
9:15 AM,59.0,43.5,56,29.92,10.0,NE,5.8,-,N/A,,Clear,40,2013-04-07 14:15:00
9:35 AM,60.6,42.4,51,29.93,10.0,ENE,4.6,-,N/A,,Clear,60,2013-04-07 14:35:00
9:55 AM,62.6,42.4,48,29.93,10.0,East,3.5,-,N/A,,Clear,90,2013-04-07 14:55:00
10:15 AM,63.7,42.1,45,29.93,10.0,Calm,Calm,-,N/A,,Clear,0,2013-04-07 15:15:00
10:35 AM,64.8,44.1,47,29.93,10.0,NE,4.6,-,N/A,,Clear,50,2013-04-07 15:35:00
10:55 AM,65.8,43.2,44,29.93,10.0,ESE,4.6,-,N/A,,Clear,120,2013-04-07 15:55:00
11:15 AM,66.7,42.8,42,29.94,10.0,East,4.6,-,N/A,,Clear,80,2013-04-07 16:15:00
11:35 AM,68.0,43.9,42,29.94,10.0,Calm,Calm,-,N/A,,Clear,0,2013-04-07 16:35:00
11:55 AM,68.5,43.3,40,29.94,10.0,Calm,Calm,-,N/A,,Clear,0,2013-04-07 16:55:00
12:15 PM,70.3,44.8,40,29.93,10.0,SE,6.9,-,N/A,,Clear,140,2013-04-07 17:15:00
12:35 PM,71.4,43.5,37,29.93,10.0,South,5.8,-,N/A,,Clear,170,2013-04-07 17:35:00
12:55 PM,72.5,43.9,36,29.92,10.0,SSE,4.6,-,N/A,,Clear,160,2013-04-07 17:55:00
1:15 PM,72.9,42.4,33,29.91,10.0,SE,6.9,-,N/A,,Clear,130,2013-04-07 18:15:00
1:35 PM,73.0,41.9,33,29.91,10.0,South,5.8,-,N/A,,Clear,170,2013-04-07 18:35:00
1:55 PM,72.9,41.7,33,29.91,10.0,South,3.5,-,N/A,,Clear,170,2013-04-07 18:55:00
2:15 PM,73.4,42.4,33,29.90,10.0,SSE,5.8,-,N/A,,Clear,150,2013-04-07 19:15:00
2:35 PM,73.9,41.9,32,29.90,10.0,SE,8.1,-,N/A,,Clear,130,2013-04-07 19:35:00
2:55 PM,73.6,41.5,32,29.89,10.0,SSE,5.8,-,N/A,,Clear,150,2013-04-07 19:55:00
3:15 PM,73.4,41.7,32,29.88,10.0,South,8.1,-,N/A,,Clear,190,2013-04-07 20:15:00
3:35 PM,73.4,40.6,31,29.88,10.0,South,4.6,-,N/A,,Clear,170,2013-04-07 20:35:00
3:55 PM,73.8,41.7,32,29.88,10.0,SSE,4.6,-,N/A,,Clear,150,2013-04-07 20:55:00
4:15 PM,74.5,42.4,32,29.87,10.0,SE,4.6,-,N/A,,Clear,140,2013-04-07 21:15:00
4:35 PM,74.7,42.4,31,29.86,10.0,SE,5.8,-,N/A,,Clear,130,2013-04-07 21:35:00
4:55 PM,75.0,42.3,31,29.86,10.0,SE,6.9,-,N/A,,Clear,130,2013-04-07 21:55:00
5:15 PM,75.6,42.8,31,29.85,10.0,ESE,9.2,-,N/A,,Clear,120,2013-04-07 22:15:00
5:35 PM,75.2,41.9,30,29.85,10.0,East,5.8,-,N/A,,Clear,100,2013-04-07 22:35:00
5:55 PM,74.5,42.6,32,29.84,10.0,ESE,10.4,16.1,N/A,,Clear,110,2013-04-07 22:55:00
6:15 PM,74.3,42.6,32,29.84,10.0,ESE,10.4,-,N/A,,Clear,120,2013-04-07 23:15:00
6:35 PM,73.0,42.4,33,29.84,10.0,ESE,8.1,-,N/A,,Clear,110,2013-04-07 23:35:00
6:55 PM,71.6,42.3,35,29.83,10.0,East,6.9,-,N/A,,Clear,100,2013-04-07 23:55:00
7:15 PM,69.8,41.9,36,29.83,10.0,ESE,6.9,-,N/A,,Clear,110,2013-04-08 00:15:00
7:35 PM,68.7,41.4,37,29.82,5.0,East,5.8,-,N/A,,Haze,100,2013-04-08 00:35:00
7:55 PM,67.8,42.3,39,29.82,10.0,ESE,8.1,-,N/A,,Clear,120,2013-04-08 00:55:00
8:15 PM,66.6,43.7,44,29.82,10.0,ESE,8.1,-,N/A,,Clear,120,2013-04-08 01:15:00
8:35 PM,66.2,45.0,46,29.83,10.0,ESE,9.2,-,N/A,,Clear,120,2013-04-08 01:35:00
8:55 PM,66.4,45.5,47,29.82,10.0,ESE,10.4,-,N/A,,Clear,120,2013-04-08 01:55:00
9:15 PM,66.4,45.7,47,29.83,10.0,SE,9.2,-,N/A,,Scattered Clouds,130,2013-04-08 02:15:00
9:35 PM,66.9,45.9,47,29.81,10.0,SE,12.7,-,N/A,,Mostly Cloudy,130,2013-04-08 02:35:00
9:55 PM,67.5,47.7,49,29.81,10.0,SE,15.0,-,N/A,,Overcast,140,2013-04-08 02:55:00
10:15 PM,66.2,52.5,61,29.80,10.0,SE,15.0,20.7,N/A,,Overcast,130,2013-04-08 03:15:00
10:35 PM,65.3,54.0,67,29.79,10.0,SE,17.3,24.2,N/A,,Overcast,130,2013-04-08 03:35:00
10:55 PM,64.8,54.5,69,29.78,10.0,SE,16.1,25.3,N/A,,Mostly Cloudy,130,2013-04-08 03:55:00
11:15 PM,64.6,54.1,69,29.77,10.0,SE,15.0,20.7,N/A,,Scattered Clouds,130,2013-04-08 04:15:00
11:35 PM,64.2,54.7,71,29.77,10.0,SE,15.0,20.7,N/A,Rain,Light Rain,130,2013-04-08 04:35:00
11:55 PM,63.5,55.6,75,29.76,10.0,SE,13.8,-,N/A,,Scattered Clouds,130,2013-04-08 04:55:00